ZHONGXING-26

Last updated on Sun Nov 02 2025 00:02:51 GMT+0000 (Coordinated Universal Time)

1 55686U 23023A 25304.85051123 -.00000343 00000+0 00000+0 0 9998 2 55686 0.0588 70.9953 0000792 78.7776 321.8954 1.00274091 9944
UTC large
Height (km)
Speed (km/s)
/
Latitude / Longitude
Inclination (degrees)
Orbital Period (minutes)
Azimuth
Elevation
Range (km)
Doppler Factor

Next 0 passes for location: London (51.5072 / 0.1276)

Sorry there are no passes over London.